Location: Lombard
(41.8800°N, 88.0080°W)
Time: 13:19:49
(UTC-05:00)

X-37B - Visible Passes

Search period start: 24 March 2023 00:00
Search period end: 03 April 2023 00:00
Orbit: 277 x 277 km, 45.0° (Epoch: 01 November)

Date Brightness Start Highest point End Pass type
(mag) Time Alt. Az. Time Alt. Az. Time Alt. Az.
24 Mar 0.4 20:39:22 10° WNW 20:41:28 60° WNW 20:41:28 60° WNW visible
25 Mar 0.6 20:40:05 10° WNW 20:42:12 50° WSW 20:42:12 50° WSW visible
26 Mar 1.4 20:40:54 10° W 20:42:59 30° SW 20:42:59 30° SW visible
27 Mar 2.3 20:41:57 10° WSW 20:43:41 17° SSW 20:43:49 17° SSW visible
